Hutchinson, MN

1:22 PM CDT on April 23, 2017 (GMT -0500)
Hutchinson Municipal-Butler

Weather History for KHCD - January, 2014

Change the Weather History Date:

Thursday, January 30, 2014

  Actual Average Record
Temperature  
Mean Temperature 8 °F -  
Max Temperature 24 °F 23 °F 57 °F (2002)
Min Temperature -7 °F 1 °F -22 °F (2004)
Degree Days  
Heating Degree Days 56    
Moisture  
Dew Point 6 °F    
Average Humidity 78    
Maximum Humidity 92    
Minimum Humidity 66    
Precipitation  
Precipitation 0.00 in - - ()
Sea Level Pressure  
Sea Level Pressure 29.71 in    
Wind  
Wind Speed 11 mph (NNW)    
Max Wind Speed 25 mph    
Max Gust Speed 34 mph    
Visibility 6 miles    
Events Snow    
Averages and records for this station are not official NWS values.
T = Trace of Precipitation, MM = Missing Value Source: NWS Daily Summary

Daily Weather History Graph

Daily Weather History Graph

Search for Another Location

Airport or City:

Trip Planner

Search our weather history database for the weather conditions in past years. The results will help you decide how hot, cold, wet, or windy it might be!

Date:

Astronomy

Jan. 30, 2014 Rise Set
Actual Time 7:39 AM CST 5:23 PM CST
Civil Twilight 7:07 AM CST 5:54 PM CST
Nautical Twilight 6:32 AM CST 6:29 PM CST
Astronomical Twilight 5:58 AM CST 7:04 PM CST
Moon 7:03 AM CST (1/30) 5:38 PM CST (1/30)
Length of Visible Light 10h 46m
Length of Day
9h 43m
Waning Crescent, 0% of the Moon is Illuminated
Jan 30
Waning Crescent
Jan 30
New
Feb 6
First Quarter
Feb 14
Full
Feb 22
Last Quarter

Hourly Weather History & Observations

Time (CST) Temp. Windchill Dew Point Humidity Pressure Visibility Wind Dir Wind Speed Gust Speed Precip Events Conditions
12:14 AM 24.1 °F - 18.7 °F 80% 29.53 in 10.0 mi Calm Calm - N/A   Overcast
12:33 AM 23.5 °F - 19.2 °F 84% 29.53 in 10.0 mi Calm Calm - N/A   Overcast
12:53 AM 24.8 °F 19.1 °F 18.3 °F 76% 29.53 in 10.0 mi North 4.6 mph - N/A   Overcast
1:12 AM 24.3 °F 18.4 °F 17.8 °F 76% 29.52 in 10.0 mi North 4.6 mph - N/A   Overcast
1:33 AM 23.9 °F 16.8 °F 18.0 °F 78% 29.51 in 10.0 mi North 5.8 mph - N/A   Overcast
1:53 AM 23.9 °F 15.8 °F 16.7 °F 74% 29.51 in 10.0 mi NNE 6.9 mph - N/A   Overcast
2:13 AM 23.9 °F 14.2 °F 16.9 °F 75% 29.50 in 10.0 mi NNE 9.2 mph - N/A   Overcast
2:32 AM 23.7 °F 13.3 °F 17.2 °F 76% 29.48 in 10.0 mi NNE 10.4 mph - N/A   Overcast
2:53 AM 23.7 °F 10.5 °F 16.5 °F 74% 29.47 in 10.0 mi NNE 16.1 mph - N/A   Overcast
3:14 AM 23.0 °F 9.6 °F 17.1 °F 78% 29.46 in 5.0 mi NNE 16.1 mph - N/A Snow Light Snow
3:33 AM 22.6 °F 9.6 °F 18.1 °F 83% 29.47 in 7.0 mi NNE 15.0 mph - N/A Snow Light Snow
3:53 AM 21.7 °F 7.5 °F 18.9 °F 89% 29.44 in 3.0 mi NNE 17.3 mph 21.9 mph N/A Snow Light Snow
4:13 AM 21.6 °F 11.3 °F 19.2 °F 91% 29.47 in 2.5 mi ENE 9.2 mph - N/A Snow Light Snow
4:33 AM 21.2 °F 10.9 °F 19.2 °F 92% 29.47 in 1.8 mi NE 9.2 mph - N/A Snow Light Snow
4:53 AM 20.8 °F 7.9 °F 18.9 °F 92% 29.46 in 2.5 mi NNE 13.8 mph 18.4 mph N/A Snow Light Snow
5:13 AM 20.7 °F 5.3 °F 18.5 °F 91% 29.44 in 1.2 mi NNE 19.6 mph - N/A Snow Light Snow
5:34 AM 20.3 °F 7.7 °F 18.3 °F 92% 29.47 in 1.2 mi NNE 12.7 mph - N/A Snow Light Snow
5:53 AM 20.1 °F 6.9 °F 18.0 °F 91% 29.48 in 1.0 mi NNE 13.8 mph - N/A Snow Snow
6:13 AM 19.8 °F 6.5 °F 17.6 °F 91% 29.47 in 0.8 mi North 13.8 mph 21.9 mph N/A Snow Snow
6:33 AM 19.8 °F 6.5 °F 17.6 °F 91% 29.47 in 1.0 mi North 13.8 mph - N/A Snow Snow
6:53 AM 19.4 °F 4.5 °F 17.2 °F 91% 29.48 in 1.0 mi North 17.3 mph 20.7 mph N/A Snow Light Snow
7:13 AM 19.2 °F 7.0 °F 16.7 °F 90% 29.50 in 1.2 mi North 11.5 mph - N/A Snow Light Snow
7:34 AM 18.3 °F 3.6 °F 15.6 °F 89% 29.51 in 1.2 mi North 16.1 mph 21.9 mph N/A Snow Light Snow
7:53 AM 17.2 °F 3.3 °F 14.4 °F 88% 29.52 in 0.8 mi North 13.8 mph 23.0 mph N/A Snow Light Snow
8:13 AM 16.7 °F 6.2 °F 13.8 °F 88% 29.54 in 1.0 mi North 8.1 mph 23.0 mph N/A Snow Light Snow
8:34 AM 16.2 °F 3.2 °F 13.1 °F 88% 29.55 in 0.5 mi North 11.5 mph 19.6 mph N/A Snow Snow
8:54 AM 15.8 °F 1.4 °F 12.7 °F 88% 29.57 in 0.8 mi North 13.8 mph 25.3 mph N/A Snow Light Snow
9:14 AM 15.6 °F 3.2 °F 12.2 °F 86% 29.58 in 1.8 mi North 10.4 mph 17.3 mph N/A Snow Light Snow
9:33 AM 15.6 °F -0.9 °F 11.7 °F 84% 29.60 in 1.5 mi North 18.4 mph 27.6 mph N/A Snow Light Snow
9:54 AM 15.6 °F -0.9 °F 11.3 °F 83% 29.62 in 1.5 mi North 18.4 mph 28.8 mph N/A Snow Light Snow
10:13 AM 16.2 °F -1.4 °F 11.5 °F 82% 29.63 in 1.8 mi NNW 21.9 mph 26.5 mph N/A Snow Light Snow
10:33 AM 16.2 °F -2.2 °F 11.1 °F 81% 29.64 in 4.0 mi NNW 24.2 mph 31.1 mph N/A   Haze
10:53 AM 16.5 °F -2.1 °F 10.9 °F 79% 29.65 in 1.8 mi NNW 25.3 mph - N/A Snow Light Snow
11:13 AM 16.7 °F -1.1 °F 9.7 °F 74% 29.66 in 0.8 mi NNW 23.0 mph 34.5 mph N/A Snow Light Snow
11:33 AM 16.7 °F -1.8 °F 9.9 °F 74% 29.69 in 1.0 mi NW 25.3 mph 28.8 mph N/A   Haze
11:54 AM 17.2 °F 1.2 °F 10.4 °F 75% 29.69 in 7.0 mi NW 18.4 mph - N/A   Overcast
12:13 PM 17.2 °F -0.0 °F 8.6 °F 69% 29.69 in 4.0 mi NW 21.9 mph 28.8 mph N/A   Haze
12:34 PM 15.8 °F -2.3 °F 6.6 °F 67% 29.70 in 0.8 mi NW 23.0 mph 32.2 mph N/A   Haze
12:54 PM 15.6 °F -2.2 °F 8.6 °F 74% 29.70 in 1.8 mi NW 21.9 mph - N/A   Haze
1:13 PM 14.7 °F -3.4 °F 7.0 °F 71% 29.71 in 1.0 mi NW 21.9 mph 29.9 mph N/A   Haze
1:33 PM 13.8 °F -4.5 °F 5.9 °F 71% 29.72 in 2.0 mi NW 21.9 mph - N/A   Haze
1:54 PM 13.6 °F -4.4 °F 5.0 °F 68% 29.74 in 3.0 mi NW 20.7 mph 26.5 mph N/A   Haze
2:13 PM 13.1 °F -4.6 °F 4.6 °F 69% 29.75 in 5.0 mi NW 19.6 mph 24.2 mph N/A   Haze
2:33 PM 10.8 °F -8.1 °F 1.8 °F 67% 29.77 in 1.8 mi NW 20.7 mph 27.6 mph N/A   Haze
2:53 PM 9.9 °F -8.4 °F 1.0 °F 68% 29.79 in 1.5 mi NW 18.4 mph - N/A   Haze
3:14 PM 9.7 °F -10.0 °F 0.7 °F 67% 29.81 in 0.2 mi NW 21.9 mph 29.9 mph N/A Snow Light Snow
3:33 PM 8.6 °F -8.3 °F -0.4 °F 67% 29.82 in - NW 15.0 mph - N/A   Clear
3:53 PM 8.2 °F -11.0 °F -1.1 °F 66% 29.82 in 0.5 mi NW 19.6 mph 23.0 mph N/A Snow Light Snow
4:13 PM 7.7 °F -10.1 °F -1.5 °F 66% 29.84 in 2.0 mi WNW 16.1 mph - N/A Snow Light Snow
4:33 PM 6.8 °F -11.8 °F -2.2 °F 67% 29.84 in 10.0 mi WNW 17.3 mph - N/A   Clear
4:54 PM 5.5 °F -12.3 °F -3.1 °F 68% 29.85 in 10.0 mi NW 15.0 mph 21.9 mph N/A   Clear
5:13 PM 3.9 °F -13.0 °F -3.3 °F 72% 29.87 in 10.0 mi WNW 12.7 mph - N/A   Clear
5:33 PM 3.2 °F -14.6 °F -4.0 °F 72% 29.89 in 10.0 mi WNW 13.8 mph - N/A   Clear
5:54 PM 2.5 °F -14.0 °F -5.1 °F 71% 29.90 in 10.0 mi WNW 11.5 mph - N/A   Clear
6:12 PM 0.9 °F -15.1 °F -5.3 °F 75% 29.91 in 10.0 mi WNW 10.4 mph - N/A   Clear
6:33 PM 0.5 °F -18.7 °F -5.8 °F 75% 29.92 in 10.0 mi WNW 15.0 mph 19.6 mph N/A   Clear
6:53 PM -0.0 °F -19.4 °F -6.2 °F 75% 29.92 in 10.0 mi WNW 15.0 mph - N/A   Clear
7:13 PM -0.4 °F -19.2 °F -6.7 °F 75% 29.94 in 10.0 mi WNW 13.8 mph - N/A   Clear
7:33 PM -1.3 °F -15.7 °F -7.6 °F 75% 29.96 in 10.0 mi WNW 8.1 mph - N/A   Clear
7:53 PM -1.3 °F -15.7 °F -7.8 °F 74% 29.97 in 10.0 mi WNW 8.1 mph - N/A   Clear
8:13 PM -1.5 °F -18.1 °F -8.0 °F 74% 29.97 in 10.0 mi WNW 10.4 mph - N/A   Clear
8:33 PM -1.5 °F -19.0 °F -8.3 °F 73% 29.98 in 10.0 mi WNW 11.5 mph - N/A   Clear
8:53 PM -1.7 °F -18.3 °F -8.5 °F 73% 29.99 in 10.0 mi WNW 10.4 mph - N/A   Clear
9:13 PM -2.4 °F -17.1 °F -9.2 °F 73% 30.00 in 10.0 mi WNW 8.1 mph - N/A   Clear
9:33 PM -3.1 °F -17.9 °F -9.4 °F 74% 30.02 in 10.0 mi WNW 8.1 mph - N/A   Clear
9:53 PM -4.5 °F -16.9 °F -10.5 °F 76% 30.03 in 10.0 mi WSW 5.8 mph - N/A   Clear
10:13 PM -6.5 °F -22.1 °F -12.3 °F 76% 30.04 in 10.0 mi West 8.1 mph - N/A   Clear
10:33 PM -6.0 °F -21.5 °F -11.4 °F 77% 30.04 in 10.0 mi West 8.1 mph - N/A   Clear
10:53 PM -6.7 °F -22.3 °F -12.1 °F 77% 30.05 in 10.0 mi West 8.1 mph - N/A   Clear
11:13 PM -6.7 °F -23.5 °F -11.4 °F 80% 30.05 in 10.0 mi West 9.2 mph - N/A   Clear
11:33 PM -7.8 °F -22.3 °F -12.5 °F 80% 30.05 in 10.0 mi WSW 6.9 mph - N/A   Clear
11:53 PM -6.7 °F -21.0 °F -11.2 °F 81% 30.06 in 10.0 mi West 6.9 mph - N/A   Clear